Regional Weather Roundup
Issued by NWS Little Rock, AR

Home | Current Version | Previous Version | Text Only | Print | Product List | Glossary Off
Versions: 1 2 3 4 5 6 7 8 9 10 11 12 13 14 15 16 17 18 19 20 21 22 23 24 25 26 27 28 29 30 31 32

000
ASUS44 KLZK 222005
RWRLZK

WEATHER ROUNDUP FOR ARKANSAS
NATIONAL WEATHER SERVICE LITTLE ROCK AR
300 PM CDT THU JUN 22 2017

NOTE: "FAIR" INDICATES FEW OR NO CLOUDS BELOW 12,000 FEET WITH NO
SIGNIFICANT WEATHER AND/OR OBSTRUCTIONS TO VISIBILITY.

ARZ001-003-010-029-222100-
NORTHWEST ARKANSAS

CITY           SKY/WX    TMP DP  RH WIND       PRES   REMARKS
FAYETTEVILLE   PTSUNNY   82  71  69 E6        29.74F HX  86
FORT SMITH     CLOUDY    85  74  69 E9        29.68F HX  92
HARRISON       CLOUDY    81  72  74 SE9       29.77F HX  85
BENTONVILLE    CLOUDY    84  72  65 S9        29.76F HX  89
ROGERS         CLOUDY    82  72  71 S9        29.76F HX  87
SILOAM SPGS    CLOUDY    84  72  65 SE9       29.74S HX  89
HIGHFILL       CLOUDY    83  72  69 SE13      29.75F HX  88
SPRINGDALE     PTSUNNY   84  72  65 CALM      29.77F HX  89
$$

ARZ004-005-016-222100-
NORTH CENTRAL ARKANSAS

CITY           SKY/WX    TMP DP  RH WIND       PRES   REMARKS
BATESVILLE     PTSUNNY   88  73  62 S6        29.74S HX  96
FLIPPIN        PTSUNNY   82  70  65 SE7       29.73F HX  86
MTN HOME       PTSUNNY   82  74  76 VRB3      29.75F HX  88
$$

ARZ040-041-222100-
WEST CENTRAL ARKANSAS

CITY           SKY/WX    TMP DP  RH WIND       PRES   REMARKS
MENA           PTSUNNY   81  79  94 CALM      29.71F HX  89
MOUNT IDA      PTSUNNY   84  72  67 VRB3      29.68R HX  89
$$

ARZ009-017-025-026-028-222100-
NORTHEAST ARKANSAS

CITY           SKY/WX    TMP DP  RH WIND       PRES   REMARKS
CORNING        LGT RAIN  86  75  70 SE9       29.77F HX  95
JONESBORO      PTSUNNY   87  76  69 SE13      29.74F HX  97
WALNUT RIDGE   MOSUNNY   88  73  62 CALM      29.74F HX  96
BLYTHEVILLE    MOSUNNY   87  76  69 S15       29.78F HX  97
NW BLYTHEVILLE PTSUNNY   88  75  66 S13G20    29.77F HX  97
$$

ARZ022-023-033-042-044-222100-
CENTRAL ARKANSAS

CITY           SKY/WX    TMP DP  RH WIND       PRES   REMARKS
LITTLE ROCK    CLOUDY    81  78  91 E7        29.71F HX  89
N LITTLE ROCK    N/A     80  76  90 S5        29.71F HX  85
JACKSONVILLE   CLOUDY    79  77  94 E9        29.72S
CONWAY           N/A     77  75  94 SE8       29.70S FOG
SEARCY         CLOUDY    86  79  79 SE8       29.75F HX  99
HOT SPRINGS    CLOUDY    84  76  76 E14       29.69F HX  93
RUSSELLVILLE   PTSUNNY   85  74  69 VRB6      29.69F HX  92
CLINTON        PTSUNNY   84  75  74 E5        29.73S HX  92
$$

ARZ036-222100-
EAST ARKANSAS

CITY           SKY/WX    TMP DP  RH WIND       PRES   REMARKS
WEST MEMPHIS   CLOUDY    88  75  65 S12G21    29.75F HX  97
$$

ARZ050-053-066-070-073-222100-
SOUTHWEST ARKANSAS

CITY           SKY/WX    TMP DP  RH WIND       PRES   REMARKS
ARKADELPHIA    CLOUDY    81  76  84 CALM      29.67F HX  87
CAMDEN         HVY RAIN  75  73  94 E7        29.65F VSB 3/4
TEXARKANA      CLOUDY    84  75  74 E8G21     29.62F HX  92
EL DORADO      LGT RAIN  79  77  94 E7        29.63F
DE QUEEN       CLOUDY    86  76  71 E8        29.63F HX  96
$$

ARZ056-057-069-222100-
SOUTHEAST ARKANSAS

CITY           SKY/WX    TMP DP  RH WIND       PRES   REMARKS
PINE BLUFF     LGT RAIN  79  75  87 E13       29.70F
STUTTGART      CLOUDY   N/A N/A N/A SE12      29.73S
MONTICELLO     LGT RAIN  80  77  90 E9        29.67F HX  87

$$






USA.gov is the U.S. government's official web portal to all federal, state and local government web resources and services.